Total_Precipitation_Accumulation
1.70 1.82 2.84 2.86 2.38 2.17 2.26 2.13 2.07 2.05 2.05 2.03 1.94 1.81 1.71 1.54 1.31 1.14 1.02 0.93 0.88 0.93 0.91 0.84 0.82 0.74 0.62 0.53 0.54 0.66 0.76 0.89 0.97 0.98 1.10 1.16 1.14 1.27 1.45 1.66 1.90 2.14 1.89
1.44 1.77 2.81 2.83 2.34 1.97 1.94 1.90 2.01 2.04 1.98 1.91 1.83 1.81 1.63 1.46 1.30 1.13 1.02 0.93 0.86 0.92 0.95 0.93 0.91 0.80 0.65 0.61 0.66 0.75 0.80 0.88 1.01 1.07 1.29 1.42 1.35 1.40 1.30 1.48 1.75 2.02 1.90
1.44 1.63 2.16 2.54 2.32 1.97 1.85 1.94 2.01 1.91 1.87 1.87 1.81 1.83 1.54 1.39 1.31 1.17 1.07 1.01 0.94 0.86 0.86 0.99 1.00 0.90 0.73 0.73 0.86 0.93 0.99 1.03 1.11 1.20 1.71 2.38 1.81 1.55 1.55 1.64 1.75 1.74 1.78
1.44 1.47 1.75 2.33 2.18 1.95 1.89 1.99 2.02 1.94 1.90 1.93 1.83 1.63 1.37 1.33 1.28 1.25 1.23 1.17 1.04 0.90 0.85 0.90 0.93 0.88 0.81 0.83 0.92 0.99 1.14 1.18 1.24 1.29 1.70 2.28 2.21 1.85 1.67 1.69 1.75 1.65 1.73
1.38 1.47 1.91 2.23 2.07 1.91 1.75 1.81 1.91 1.85 1.83 1.89 1.80 1.53 1.31 1.21 1.20 1.23 1.27 1.21 1.12 1.06 0.94 0.90 0.87 0.82 0.81 0.78 0.88 0.99 1.06 1.14 1.32 1.25 1.54 2.04 2.44 2.00 1.60 1.69 1.83 1.70 1.76
1.26 1.37 1.72 2.03 1.99 1.87 1.69 1.68 1.56 1.47 1.49 1.61 1.59 1.42 1.26 1.26 1.22 1.21 1.18 1.12 1.13 1.12 1.04 0.95 0.88 0.84 0.82 0.76 0.81 0.91 1.03 1.12 1.16 1.30 1.62 2.10 2.36 1.97 1.58 1.63 1.84 1.94 1.94
1.20 1.17 1.41 1.69 1.74 1.73 1.69 1.60 1.53 1.40 1.42 1.43 1.38 1.31 1.23 1.22 1.20 1.14 1.04 0.95 0.96 1.02 1.00 0.94 0.87 0.81 0.74 0.72 0.77 0.82 0.95 0.92 0.97 1.32 1.60 1.98 1.94 1.75 1.49 1.60 1.88 2.08 2.06
1.18 1.10 1.19 1.40 1.44 1.37 1.38 1.58 1.62 1.36 1.39 1.35 1.22 1.18 1.17 1.07 1.04 1.02 0.91 0.91 0.94 1.02 1.02 0.94 0.86 0.78 0.73 0.72 0.78 0.83 0.93 0.77 0.69 0.97 1.29 1.75 1.94 1.80 1.48 1.47 1.71 1.87 2.03
1.30 1.17 1.10 1.06 1.10 1.21 1.38 1.34 1.27 1.30 1.42 1.36 1.16 1.10 1.12 0.97 0.87 0.84 0.86 0.91 0.93 1.02 1.06 0.97 0.86 0.77 0.76 0.78 0.84 0.85 0.88 0.80 0.75 0.93 1.07 1.53 1.87 1.83 1.51 1.42 1.56 1.65 1.87
1.19 1.07 0.94 0.87 0.92 1.00 1.13 1.21 1.18 1.17 1.24 1.23 1.14 1.13 1.13 0.92 0.80 0.81 0.84 0.97 1.04 1.04 1.12 1.06 0.89 0.81 0.79 0.83 0.83 0.76 0.73 0.67 0.72 0.84 1.16 1.34 1.86 1.86 1.51 1.33 1.37 1.42 1.50
1.03 0.94 0.87 0.78 0.81 0.88 0.94 0.98 1.09 1.12 1.13 1.05 0.96 0.99 0.91 0.72 0.71 0.76 0.81 1.10 1.21 1.30 1.28 1.20 1.09 0.96 0.87 0.81 0.80 0.75 0.59 0.57 0.76 0.89 1.16 1.51 1.85 1.78 1.49 1.31 1.34 1.26 1.22
1.01 0.91 0.83 0.82 0.79 0.77 0.78 1.03 1.17 1.03 0.95 0.85 0.87 0.84 0.82 0.82 0.86 0.73 0.80 1.01 1.04 1.11 1.16 1.15 1.14 0.99 0.78 0.64 0.66 0.66 0.53 0.62 0.72 0.80 1.06 1.59 1.83 1.81 1.61 1.39 1.29 1.21 1.15
0.97 0.88 0.77 0.79 0.71 0.64 0.76 0.93 1.10 1.14 1.11 1.07 0.93 0.93 0.88 0.81 0.74 0.63 0.64 0.73 0.78 0.86 0.85 0.94 0.98 0.80 0.66 0.62 0.64 0.56 0.53 0.59 0.70 0.79 1.09 1.67 1.90 1.88 1.76 1.50 1.34 1.25 1.21
0.84 0.87 0.75 0.71 0.62 0.56 0.54 0.64 0.80 0.85 0.85 0.86 0.87 0.81 0.83 0.87 0.85 0.73 0.72 0.78 0.81 0.79 0.88 0.93 0.95 0.85 0.70 0.59 0.56 0.57 0.59 0.62 0.73 0.91 1.14 1.56 1.91 1.97 1.94 1.70 1.56 1.46 1.38
0.79 0.77 0.75 0.71 0.65 0.69 0.65 0.61 0.59 0.63 0.69 0.74 0.81 0.74 0.69 0.75 0.83 0.82 0.77 0.84 0.82 0.84 0.92 0.89 0.77 0.78 0.73 0.61 0.58 0.60 0.69 0.68 0.81 0.89 1.05 1.37 1.82 2.24 2.30 2.11 1.84 1.65 1.66
0.72 0.79 0.78 0.68 0.69 0.68 0.63 0.64 0.66 0.65 0.67 0.70 0.75 0.67 0.62 0.63 0.67 0.79 0.79 0.87 0.82 0.89 0.98 0.86 0.79 0.81 0.81 0.69 0.62 0.66 0.69 0.71 0.79 0.93 1.04 1.24 1.48 1.93 2.36 2.42 2.24 2.03 1.87
0.61 0.71 0.78 0.74 0.75 0.72 0.68 0.70 0.72 0.71 0.65 0.67 0.71 0.63 0.59 0.64 0.64 0.77 0.83 0.86 0.87 0.91 0.93 0.94 0.94 0.88 0.80 0.72 0.69 0.67 0.67 0.72 0.89 1.01 1.05 1.19 1.20 1.28 1.76 2.34 2.56 2.49 2.27
0.59 0.62 0.71 0.71 0.77 0.79 0.77 0.79 0.78 0.73 0.72 0.75 0.76 0.71 0.67 0.66 0.69 0.88 0.94 0.85 0.92 1.03 1.09 1.12 1.09 1.00 0.90 0.87 0.89 0.85 0.78 0.82 1.03 1.12 1.06 1.02 1.06 0.99 1.12 1.47 1.82 2.11 2.39
0.61 0.59 0.61 0.66 0.85 0.86 0.82 0.88 0.90 0.88 0.93 0.95 0.94 0.90 0.85 0.82 0.89 1.06 1.14 1.05 1.04 1.20 1.20 1.09 1.14 1.18 1.09 1.11 1.07 1.07 0.99 0.99 1.05 1.01 1.02 1.09 1.14 1.12 1.12 0.99 1.13 1.38 1.91
0.58 0.54 0.56 0.64 0.77 0.87 1.00 1.07 1.15 1.16 1.17 1.29 1.35 1.31 1.14 1.08 1.13 1.29 1.39 1.35 1.31 1.45 1.47 1.35 1.48 1.49 1.40 1.46 1.32 1.22 1.17 1.15 1.13 1.10 1.11 1.20 1.31 1.21 1.22 1.10 1.03 0.89 1.13
0.47 0.47 0.51 0.65 0.82 0.95 1.05 1.18 1.42 1.58 1.68 1.69 1.68 1.73 1.64 1.45 1.53 1.64 1.62 1.85 1.92 1.91 1.92 1.87 2.01 2.05 1.80 1.63 1.95 1.93 1.54 1.25 1.13 1.21 1.30 1.35 1.46 1.46 1.39 1.32 1.24 1.06 0.96
0.39 0.40 0.46 0.59 0.82 1.04 1.23 1.40 1.58 1.89 2.05 2.05 2.12 2.05 1.98 1.86 1.88 1.80 1.88 2.11 2.17 2.29 2.39 2.24 2.38 2.48 2.16 1.86 2.30 2.77 2.34 1.91 1.31 1.09 1.23 1.38 1.55 1.57 1.47 1.36 1.34 1.30 1.21
0.30 0.33 0.39 0.49 0.71 1.00 1.29 1.53 1.73 1.95 2.21 2.29 2.20 2.16 2.18 2.24 2.28 2.16 2.11 2.25 2.28 2.36 2.58 2.62 2.57 2.69 2.63 2.28 2.24 2.74 2.71 2.37 1.96 1.43 1.27 1.34 1.51 1.61 1.64 1.64 1.48 1.46 1.36
0.30 0.34 0.40 0.49 0.63 0.84 1.10 1.41 1.65 1.90 2.22 2.30 2.27 2.25 2.29 2.37 2.44 2.39 2.33 2.40 2.42 2.39 2.53 2.61 2.58 2.81 3.03 2.77 2.49 2.26 2.21 2.26 2.32 1.94 1.52 1.39 1.52 1.60 1.71 1.67 1.69 1.74 1.69
0.36 0.40 0.49 0.58 0.70 0.86 1.09 1.40 1.72 1.89 2.05 2.24 2.27 2.18 2.12 2.19 2.19 2.15 2.25 2.41 2.43 2.42 2.44 2.61 2.72 2.92 2.94 2.88 2.75 2.60 2.43 2.27 1.94 2.02 1.93 1.68 1.64 1.55 1.66 1.82 1.89 1.93 1.86
0.48 0.55 0.66 0.73 0.90 1.03 1.09 1.21 1.37 1.58 1.85 1.97 2.08 2.12 2.14 2.15 2.02 1.92 2.02 2.11 2.20 2.27 2.26 2.31 2.46 2.62 2.82 2.97 2.90 2.72 2.66 2.60 2.41 2.25 1.95 1.81 1.87 1.71 1.61 1.64 1.74 1.83 1.97